Location: Unspecified
(0.0000°N, 0.0000°E)
Time: 09:43:18
(UTC+00:00)

S-56A Canister/Altair - Visible Passes

Search period start: 31 July 2016 00:00
Search period end: 10 August 2016 00:00
Orbit: 641 x 2494 km, 38.9° (Epoch: 29 July)

Date Brightness Start Highest point End Pass type
(mag) Time Alt. Az. Time Alt. Az. Time Alt. Az.
31 Jul 11.2 02:53:04 13° SSE 02:53:51 13° SSE 02:58:52 10° SE visible
31 Jul 10.0 04:51:08 10° SSW 05:02:18 40° SE 05:10:01 10° ENE visible
31 Jul 10.2 19:37:14 10° W 19:45:32 37° SW 19:54:39 16° SSE visible
31 Jul 11.4 21:49:57 10° SW 21:52:09 12° SSW 21:52:09 12° SSW visible
01 Aug 11.4 02:22:42 12° SSE 02:22:42 12° SSE 02:24:50 10° SE visible
01 Aug 10.2 04:20:11 15° SSW 04:29:21 36° SE 04:37:28 10° E visible
01 Aug 10.0 19:04:40 10° WNW 19:12:33 41° SW 19:23:55 10° SSE visible
01 Aug 11.3 21:15:53 10° SW 21:21:05 13° SSW 21:21:52 13° SSW visible
02 Aug 10.4 03:49:52 22° S 03:56:17 33° SSE 04:04:47 10° E visible
02 Aug 9.8 18:32:13 10° WNW 18:39:41 45° SW 18:50:45 10° SSE visible
02 Aug 11.2 20:42:10 10° SW 20:47:42 15° SSW 20:51:34 13° S visible
03 Aug 10.6 03:19:36 27° S 03:23:09 30° SSE 03:31:58 10° E visible
03 Aug 9.1 05:17:24 10° SW 05:29:47 87° NW 05:37:51 10° NE visible
03 Aug 11.1 20:08:44 10° WSW 20:14:25 16° SSW 20:21:10 10° S visible
04 Aug 10.7 02:49:22 27° SSE 02:49:55 27° SSE 02:58:58 10° E visible
04 Aug 9.2 04:46:50 19° SW 04:57:02 83° SE 05:05:39 10° NE visible
04 Aug 10.9 19:35:30 10° WSW 19:41:15 17° SSW 19:48:15 10° S visible
05 Aug 10.9 02:19:08 24° SE 02:19:08 24° SE 02:25:47 10° E visible
05 Aug 9.4 04:16:37 30° SW 04:24:09 73° SE 04:33:21 10° NE visible
05 Aug 10.8 19:02:29 10° WSW 19:08:11 18° SSW 19:15:20 10° SSE visible
06 Aug 11.2 01:48:55 17° ESE 01:48:55 17° ESE 01:52:23 10° ESE visible
06 Aug 9.6 03:46:24 44° SSW 03:51:10 65° SE 04:00:58 10° ENE visible
06 Aug 10.7 18:29:36 10° WSW 18:35:13 20° SSW 18:42:24 10° SSE visible
07 Aug 11.6 01:18:41 10° ESE 01:18:41 10° ESE 01:18:42 10° ESE visible
07 Aug 9.8 03:16:09 54° S 03:18:06 58° SE 03:28:26 10° ENE visible
07 Aug 9.7 05:13:39 14° WSW 05:23:44 44° NW 05:31:56 10° NNE visible
08 Aug 10.0 02:45:55 51° SE 02:45:55 51° SE 02:55:46 10° ENE visible
08 Aug 9.6 04:43:24 26° WSW 04:50:59 53° NW 04:59:58 10° NNE visible
09 Aug 10.4 02:15:39 39° ESE 02:15:39 39° ESE 02:22:58 10° ENE visible
09 Aug 9.5 04:13:08 41° WSW 04:18:09 62° NW 04:27:51 10° NE visible
